Terug naar catalogus

STARLINK-11485

ActiefCommunicatieVLEO
NORAD 62229·PAYLOAD·🇺🇸 United States

Gelanceerd Dec 5, 2024 vanaf Vandenberg Space Force Base

Loading…

Volgende Passages (komende 24 uur)

TLE

VersSource: CelesTrak SupGP

Epoch: Sep 15, 2026, 02:15 UTC

1 62229C 24231M   26258.09423611  .00002812  00000+0  23138-4 0  2583
2 62229  53.1578 247.4646 0001249  98.1655 168.3793 15.69732251    14

Volg STARLINK-11485 in realtime met AllMySat

Download on the App Store